Location: ?????????
(54.7630°N, 39.4991°E)
Time: 21:34:16
(UTC+00:00)

Cosmos 1602 Rocket - Pass Details

Date: 14 April 2026
Orbit: 596 x 626 km, 82.5° (Epoch: 16 May)

Event Time Altitude Azimuth Distance (km) Brightness Sun altitude
Rises 22:47:50 0° 345° (NNW) 2,878 7.8 -23.1°
Reaches altitude 10° 22:50:06 10° 342° (NNW) 1,965 6.8 -23.0°
Enters shadow 22:54:11 58° 276° (W) 708 3.6 -22.7°
